KJ5MTR Weather Reports


Display with metric or nautical units.
time (UTC)temp
F
wind
direction
speed
MPH
gust
MPH
rain 1hr
in
rain 24hr
in
rain mn
in
humidity
%
barometer
mb
20260509201515 84 0.0 1.0 0.00 0.00 0.00 51 1009.1
20260509200516 82 0.0 8.0 0.00 0.00 0.00 56 1009.5
20260509195515 81 0.0 6.0 0.00 0.00 0.00 57 1009.9
20260509194515 83 0.0 5.0 0.00 0.00 0.00 50 1010.2
20260509193535 86 0.0 1.0 0.00 0.00 0.00 56 1009.8
20260509192535 90 0.0 0.0 0.00 0.00 0.00 59 1009.8
20260509191515 89 0.0 2.0 0.00 0.00 0.00 62 1009.4
20260509190515 89 0.0 6.0 0.00 0.00 0.00 63 1009.4
20260509185515 89 0.0 7.0 0.00 0.00 0.00 64 1009.4
20260509184517 90 0.0 0.0 0.00 0.00 0.00 59 1009.7
20260509183517 90 0.0 1.0 0.00 0.00 0.00 60 1009.9
20260509182518 90 0.0 0.0 0.00 0.00 0.00 60 1010.0
20260509181516 90 0.0 1.0 0.00 0.00 0.00 60 1010.2
20260509180517 89 0.0 1.0 0.00 0.00 0.00 63 1010.4
20260509175517 89 0.0 0.0 0.00 0.00 0.00 61 1010.3
20260509174517 88 0.0 0.0 0.00 0.00 0.00 65 1010.5
20260509173517 88 0.0 0.0 0.00 0.00 0.00 65 1010.4
20260509172517 88 0.0 0.0 0.00 0.00 0.00 65 1010.7
20260509171517 87 0.0 0.0 0.00 0.00 0.00 69 1010.7
20260509170517 87 0.0 0.0 0.00 0.00 0.00 67 1010.9
20260509165517 87 0.0 0.0 0.00 0.00 0.00 67 1010.9
20260509164517 87 0.0 0.0 0.00 0.00 0.00 66 1010.9
20260509163517 87 0.0 0.0 0.00 0.00 0.00 68 1010.9
20260509162517 86 0.0 0.0 0.00 0.00 0.00 70 1011.2
20260509161517 85 0.0 0.0 0.00 0.00 0.00 73 1011.1
20260509160517 84 0.0 1.0 0.00 0.00 0.00 74 1010.9
20260509155537 83 0.0 1.0 0.00 0.00 0.00 76 1010.8
20260509154537 82 0.0 1.0 0.00 0.00 0.00 79 1010.9
20260509153537 82 0.0 5.0 0.00 0.00 0.00 79 1010.7
20260509152517 80 0.0 6.0 0.00 0.00 0.00 81 1010.7
20260509151517 80 0.0 1.0 0.00 0.00 0.00 84 1010.3
20260509150517 78 0.0 5.0 0.00 0.00 0.00 86 1010.3
20260509145517 78 0.0 0.0 0.00 0.00 0.00 86 1010.4
20260509144517 79 0.0 1.0 0.00 0.00 0.00 85 1010.5
20260509143537 80 0.0 3.0 0.00 0.00 0.00 83 1010.3
20260509142517 80 0.0 0.0 0.00 0.00 0.00 81 1010.2
20260509141517 80 0.0 2.0 0.00 0.00 0.00 82 1010.0
20260509140537 80 0.0 1.0 0.00 0.00 0.00 85 1009.8
20260509135517 79 0.0 0.0 0.00 0.00 0.00 87 1009.6
20260509134517 77 0.0 0.0 0.00 0.00 0.00 90 1010.0
20260509133517 75 0.0 0.0 0.00 0.00 0.00 93 1010.0
20260509132517 74 0.0 0.0 0.00 0.00 0.00 94 1010.0
20260509131557 73 0.0 0.0 0.00 0.00 0.00 94 1010.2
20260509130517 72 0.0 0.0 0.00 0.00 0.00 94 1010.4
20260509125517 72 0.0 0.0 0.00 0.00 0.00 94 1010.5
20260509124557 72 0.0 0.0 0.00 0.00 0.00 94 1010.4
20260509123517 72 0.0 0.0 0.00 0.00 0.00 94 1010.3
20260509122517 71 0.0 0.0 0.00 0.00 0.00 94 1010.2
20260509121517 71 0.0 0.0 0.00 0.00 0.00 94 1010.0
20260509120517 71 0.0 0.0 0.00 0.00 0.00 94 1010.0
20260509115517 72 0.0 0.0 0.00 0.00 0.00 94 1010.2
20260509114517 72 0.0 0.0 0.00 0.00 0.00 94 1010.6
20260509113516 72 0.0 0.0 0.00 0.00 0.00 94 1011.1
20260509112517 72 0.0 0.0 0.00 0.00 0.00 94 1011.3
20260509111517 72 0.0 0.0 0.00 0.00 0.00 94 1011.5
20260509110537 72 0.0 0.0 0.00 0.00 0.00 94 1011.5
20260509105516 72 0.0 0.0 0.00 0.00 0.00 94 1011.5
20260509104537 72 0.0 0.0 0.00 0.00 0.00 94 1011.4
20260509103516 72 0.0 0.0 0.00 0.00 0.00 94 1011.6
20260509102517 72 0.0 0.0 0.00 0.00 0.00 94 1011.5
20260509101516 72 0.0 0.0 0.00 0.00 0.00 94 1011.4
20260509100517 72 0.0 0.0 0.00 0.00 0.00 94 1011.1
20260509095536 72 0.0 0.0 0.00 0.00 0.00 94 1010.7
20260509094517 72 0.0 0.0 0.00 0.00 0.00 94 1010.4
20260509093517 72 0.0 0.0 0.00 0.00 0.00 94 1010.1
20260509092516 72 0.0 0.0 0.00 0.00 0.00 94 1010.0
20260509091516 72 0.0 0.0 0.00 0.00 0.00 94 1009.9
20260509090517 72 0.0 0.0 0.00 0.00 0.00 94 1010.0
20260509085516 72 0.0 0.0 0.00 0.00 0.00 94 1010.0
20260509084516 72 0.0 0.0 0.00 0.00 0.00 94 1010.3
20260509083516 72 0.0 0.0 0.00 0.00 0.00 94 1010.5
20260509082518 72 0.0 0.0 0.00 0.00 0.00 94 1010.6
20260509081516 72 0.0 0.0 0.00 0.00 0.00 94 1010.3
20260509080516 72 0.0 0.0 0.00 0.00 0.00 94 1010.5
20260509075516 72 0.0 0.0 0.00 0.00 0.00 94 1010.7
20260509074516 72 0.0 0.0 0.00 0.00 0.00 94 1010.6
20260509073636 72 0.0 0.0 0.00 0.00 0.00 93 1010.9
20260509072516 72 0.0 0.0 0.00 0.00 0.00 93 1010.9
20260509071516 72 0.0 0.0 0.00 0.00 0.00 93 1011.0
20260509070536 72 0.0 0.0 0.00 0.00 0.00 93 1011.1
20260509065536 72 0.0 0.0 0.00 0.00 0.00 93 1010.8
20260509064516 72 0.0 0.0 0.00 0.00 0.00 93 1010.7
20260509063516 72 0.0 0.0 0.00 0.00 0.00 93 1010.9
20260509062516 73 0.0 0.0 0.00 0.00 0.00 93 1010.8
20260509061516 73 0.0 0.0 0.00 0.00 0.00 92 1010.6
20260509060516 73 0.0 0.0 0.00 0.00 0.00 92 1010.4
20260509055516 73 0.0 1.0 0.00 0.00 0.00 92 1010.4
20260509054516 73 0.0 0.0 0.00 0.00 0.00 92 1010.3
20260509053516 73 0.0 0.0 0.00 0.00 0.00 91 1009.8
20260509052516 73 0.0 0.0 0.00 0.00 0.00 91 1009.5
20260509051516 73 0.0 0.0 0.00 0.00 0.00 91 1009.4
20260509050516 73 0.0 0.0 0.00 0.00 0.00 91 1009.3
20260509045516 74 0.0 0.0 0.00 0.00 0.00 90 1009.5
20260509044516 74 0.0 0.0 0.00 0.00 0.00 90 1009.5
20260509043516 74 0.0 0.0 0.00 0.00 0.00 90 1009.7
20260509042516 74 0.0 0.0 0.00 0.00 0.00 89 1009.7
20260509041516 74 0.0 0.0 0.00 0.00 0.00 89 1010.0
20260509040516 74 0.0 0.0 0.00 0.00 0.00 89 1010.0
20260509035516 74 0.0 0.0 0.00 0.00 0.00 89 1010.0
20260509034516 74 0.0 0.0 0.00 0.00 0.00 90 1009.6
20260509033556 73 0.0 0.0 0.00 0.00 0.00 90 1009.5
20260509032516 73 0.0 0.0 0.00 0.00 0.00 91 1009.4
20260509031516 72 0.0 0.0 0.00 0.00 0.00 90 1009.3
20260509030516 73 0.0 0.0 0.00 0.00 0.00 89 1009.3
20260509025536 73 0.0 0.0 0.00 0.00 0.00 88 1009.3
20260509024516 74 0.0 0.0 0.00 0.00 0.00 88 1009.3
20260509023536 74 0.0 0.0 0.00 0.00 0.00 86 1009.2
20260509022517 75 0.0 0.0 0.00 0.00 0.00 86 1009.0
20260509021516 75 0.0 0.0 0.00 0.00 0.00 85 1008.8
20260509020516 75 0.0 0.0 0.00 0.00 0.00 84 1008.7
20260509015516 76 0.0 0.0 0.00 0.00 0.00 84 1008.6
20260509014516 76 0.0 0.0 0.00 0.00 0.00 83 1008.5
20260509013516 76 0.0 0.0 0.00 0.00 0.00 83 1008.4
20260509012536 77 0.0 0.0 0.00 0.00 0.00 83 1008.4
20260509011516 77 0.0 0.0 0.00 0.00 0.00 82 1008.3
20260509010536 77 0.0 0.0 0.00 0.00 0.00 82 1008.4
20260509005516 77 0.0 0.0 0.00 0.00 0.00 82 1008.4
20260509004522 78 0.0 0.0 0.00 0.00 0.00 81 1008.4
20260509003536 78 0.0 0.0 0.00 0.00 0.00 81 1008.4
20260509002516 78 0.0 0.0 0.00 0.00 0.00 80 1008.5
20260509001536 78 0.0 0.0 0.00 0.00 0.00 79 1008.5
20260509000516 78 0.0 1.0 0.00 0.00 0.00 79 1008.4
20260508235515 78 0.0 0.0 0.00 0.00 0.00 78 1008.5
20260508234517 79 0.0 0.0 0.00 0.00 0.00 78 1008.5
20260508233516 79 0.0 0.0 0.00 0.00 0.00 78 1008.5
20260508232556 79 0.0 0.0 0.00 0.00 0.00 78 1008.5
20260508231515 78 0.0 0.0 0.00 0.00 0.00 78 1008.4
20260508230518 78 0.0 0.0 0.00 0.00 0.00 78 1008.5
20260508225516 79 0.0 0.0 0.00 0.00 0.00 77 1008.5
20260508224517 79 0.0 0.0 0.00 0.00 0.00 77 1008.5
20260508223516 79 0.0 0.0 0.00 0.00 0.00 76 1008.5
20260508222516 79 0.0 0.0 0.00 0.00 0.00 76 1008.5
20260508221516 80 0.0 1.0 0.00 0.00 0.00 74 1008.6
20260508220515 80 0.0 0.0 0.00 0.00 0.00 75 1008.6
20260508215515 80 0.0 0.0 0.00 0.00 0.00 76 1008.6
20260508214516 80 0.0 0.0 0.00 0.00 0.00 75 1008.9
20260508213515 80 0.0 0.0 0.00 0.00 0.00 74 1008.9
20260508212515 81 0.0 0.0 0.00 0.00 0.00 73 1009.0
20260508211515 80 0.0 0.0 0.00 0.00 0.00 73 1009.2
20260508210516 82 0.0 0.0 0.00 0.00 0.00 71 1009.5
20260508205515 82 0.0 0.0 0.00 0.00 0.00 70 1009.6
20260508204515 81 0.0 0.0 0.00 0.00 0.00 72 1009.7
20260508203515 81 0.0 0.0 0.00 0.00 0.00 70 1009.8
20260508202515 82 0.0 0.0 0.00 0.00 0.00 71 1009.8